Location: Newark
(49.2191°N, 12.6671°E)
Time: 18:41:00
(UTC+00:00)

Transit 4A - Pass Details

Date: 31 January 2020
Orbit: 872 x 973 km, 66.8° (Epoch: 26 February)

Event Time Altitude Azimuth Distance (km) Brightness Sun altitude
Rises 03:28:38 0° 179° (S) 3,539 - -31.7°
Exits shadow 03:31:00 - 171° (S) 2,734 10.3 -31.3°
Reaches altitude 10° 03:31:28 10° 168° (SSE) 2,585 10.2 -31.2°
Maximum altitude 03:36:31 29° 111° (ESE) 1,577 9.5 -30.4°
Drops below altitude 10° 03:41:29 10° 53° (NE) 2,550 10.9 -29.6°
Sets 03:44:14 0° 43° (NE) 3,484 11.6 -29.2°
